QPF
0.00 0.00 0.00 0.00 0.00 0.00 0.00 0.00 0.00 0.00 0.00 0.00 0.00 0.00 0.00 0.00 0.00 0.00 0.00 0.00 0.00 0.00 0.00 0.00 0.00 0.00 0.00 0.00 0.00 0.00 0.00 0.00 0.00 0.00 0.00 0.00 0.00 0.00 0.00 0.00 0.00 0.00 0.00
0.00 0.00 0.00 0.00 0.00 0.00 0.00 0.00 0.00 0.00 0.00 0.00 0.00 0.00 0.00 0.00 0.00 0.00 0.00 0.00 0.00 0.00 0.00 0.00 0.00 0.00 0.00 0.00 0.00 0.00 0.00 0.00 0.00 0.00 0.00 0.00 0.00 0.00 0.00 0.00 0.00 0.00 0.00
0.00 0.00 0.00 0.00 0.00 0.00 0.00 0.00 0.00 0.00 0.00 0.00 0.00 0.00 0.00 0.00 0.00 0.00 0.00 0.00 0.00 0.00 0.00 0.00 0.00 0.00 0.00 0.00 0.00 0.00 0.00 0.00 0.00 0.00 0.00 0.00 0.00 0.00 0.00 0.00 0.00 0.00 0.00
0.00 0.00 0.00 0.00 0.00 0.00 0.00 0.00 0.00 0.00 0.00 0.00 0.00 0.00 0.00 0.00 0.00 0.00 0.00 0.00 0.00 0.00 0.00 0.00 0.00 0.00 0.00 0.00 0.00 0.00 0.00 0.00 0.00 0.00 0.00 0.00 0.00 0.00 0.00 0.00 0.00 0.00 0.00
0.00 0.00 0.00 0.00 0.00 0.00 0.00 0.00 0.00 0.00 0.00 0.00 0.00 0.00 0.00 0.00 0.00 0.00 0.00 0.00 0.00 0.00 0.00 0.00 0.00 0.00 0.00 0.00 0.00 0.00 0.00 0.00 0.00 0.00 0.00 0.00 0.00 0.00 0.00 0.00 0.00 0.00 0.00
0.00 0.00 0.00 0.00 0.00 0.00 0.00 0.00 0.00 0.00 0.00 0.00 0.00 0.00 0.00 0.00 0.00 0.00 0.00 0.00 0.00 0.00 0.00 0.00 0.00 0.00 0.00 0.00 0.00 0.00 0.00 0.00 0.00 0.00 0.00 0.00 0.00 0.00 0.00 0.00 0.00 0.00 0.00
0.00 0.00 0.00 0.00 0.00 0.00 0.00 0.00 0.00 0.00 0.00 0.00 0.00 0.00 0.00 0.00 0.00 0.00 0.00 0.00 0.00 0.00 0.00 0.00 0.00 0.00 0.00 0.00 0.00 0.00 0.00 0.00 0.00 0.00 0.00 0.00 0.00 0.00 0.00 0.00 0.00 0.00 0.00
0.00 0.00 0.00 0.00 0.00 0.00 0.00 0.00 0.00 0.00 0.00 0.00 0.00 0.00 0.00 0.00 0.00 0.00 0.00 0.00 0.00 0.00 0.00 0.00 0.00 0.00 0.00 0.00 0.00 0.00 0.00 0.00 0.00 0.00 0.00 0.00 0.00 0.00 0.00 0.00 0.00 0.00 0.00
0.00 0.00 0.00 0.00 0.00 0.00 0.00 0.00 0.00 0.00 0.00 0.00 0.00 0.00 0.00 0.00 0.00 0.00 0.00 0.00 0.00 0.00 0.00 0.00 0.00 0.00 0.00 0.00 0.00 0.00 0.00 0.00 0.00 0.00 0.00 0.00 0.00 0.00 0.00 0.00 0.00 0.00 0.00
0.00 0.00 0.00 0.00 0.00 0.00 0.00 0.00 0.00 0.00 0.00 0.00 0.00 0.00 0.00 0.00 0.00 0.00 0.00 0.00 0.00 0.00 0.00 0.00 0.00 0.00 0.00 0.00 0.00 0.00 0.00 0.00 0.00 0.00 0.00 0.00 0.00 0.00 0.00 0.00 0.00 0.00 0.00
0.00 0.00 0.00 0.00 0.00 0.00 0.00 0.00 0.00 0.00 0.00 0.00 0.00 0.00 0.00 0.00 0.00 0.00 0.00 0.00 0.00 0.00 0.00 0.00 0.00 0.00 0.00 0.00 0.00 0.00 0.00 0.00 0.00 0.00 0.00 0.00 0.00 0.00 0.00 0.00 0.00 0.00 0.00
0.00 0.00 0.00 0.00 0.00 0.00 0.00 0.00 0.00 0.00 0.00 0.00 0.00 0.00 0.00 0.00 0.00 0.00 0.00 0.00 0.00 0.00 0.00 0.00 0.00 0.00 0.00 0.00 0.00 0.00 0.00 0.00 0.00 0.00 0.00 0.00 0.00 0.00 0.00 0.00 0.00 0.00 0.00
0.00 0.00 0.00 0.00 0.00 0.00 0.00 0.00 0.00 0.00 0.00 0.00 0.00 0.00 0.00 0.00 0.00 0.00 0.00 0.00 0.00 0.00 0.00 0.00 0.00 0.00 0.00 0.00 0.00 0.00 0.00 0.00 0.00 0.00 0.00 0.00 0.00 0.00 0.00 0.00 0.00 0.00 0.00
0.00 0.00 0.00 0.00 0.00 0.00 0.00 0.00 0.00 0.00 0.00 0.00 0.00 0.00 0.00 0.00 0.00 0.00 0.00 0.00 0.00 0.00 0.00 0.00 0.00 0.00 0.00 0.00 0.00 0.00 0.00 0.00 0.00 0.00 0.00 0.00 0.00 0.00 0.00 0.00 0.00 0.00 0.00
0.00 0.00 0.00 0.00 0.00 0.00 0.00 0.00 0.00 0.00 0.00 0.00 0.00 0.00 0.00 0.00 0.00 0.00 0.00 0.00 0.00 0.00 0.00 0.00 0.00 0.00 0.00 0.00 0.00 0.00 0.00 0.00 0.00 0.00 0.00 0.00 0.00 0.00 0.00 0.00 0.00 0.00 0.01
0.00 0.00 0.00 0.00 0.00 0.00 0.00 0.00 0.00 0.00 0.00 0.00 0.00 0.00 0.00 0.00 0.00 0.00 0.00 0.00 0.00 0.00 0.00 0.00 0.00 0.00 0.00 0.00 0.00 0.00 0.00 0.00 0.00 0.00 0.00 0.00 0.00 0.00 0.00 0.01 0.01 0.02 0.05
0.00 0.00 0.00 0.00 0.00 0.00 0.00 0.00 0.00 0.00 0.00 0.00 0.00 0.00 0.00 0.00 0.00 0.00 0.00 0.00 0.00 0.00 0.00 0.00 0.00 0.00 0.00 0.00 0.00 0.00 0.00 0.00 0.00 0.00 0.00 0.00 0.00 0.00 0.00 0.00 0.02 0.03 0.06
0.00 0.00 0.00 0.00 0.00 0.00 0.00 0.00 0.00 0.00 0.00 0.00 0.00 0.00 0.00 0.00 0.00 0.00 0.00 0.00 0.00 0.00 0.00 0.00 0.00 0.00 0.00 0.00 0.00 0.00 0.00 0.00 0.00 0.00 0.00 0.00 0.00 0.00 0.01 0.01 0.02 0.03 0.03
0.00 0.00 0.00 0.00 0.00 0.00 0.00 0.00 0.00 0.00 0.00 0.00 0.00 0.00 0.00 0.00 0.00 0.00 0.00 0.00 0.00 0.00 0.00 0.00 0.00 0.00 0.00 0.00 0.00 0.00 0.00 0.00 0.00 0.00 0.00 0.00 0.01 0.01 0.03 0.05 0.08 0.04 0.00
0.00 0.00 0.00 0.00 0.00 0.00 0.00 0.00 0.00 0.00 0.00 0.00 0.00 0.00 0.00 0.00 0.00 0.00 0.00 0.00 0.00 0.00 0.00 0.00 0.00 0.00 0.00 0.00 0.00 0.00 0.00 0.00 0.00 0.00 0.00 0.01 0.01 0.02 0.06 0.07 0.05 0.01 0.00
0.00 0.00 0.00 0.00 0.00 0.00 0.00 0.00 0.00 0.00 0.00 0.00 0.00 0.00 0.00 0.00 0.00 0.00 0.00 0.00 0.00 0.00 0.00 0.00 0.00 0.00 0.00 0.00 0.00 0.00 0.00 0.00 0.00 0.00 0.00 0.00 0.02 0.06 0.06 0.02 0.00 0.01 0.01
0.00 0.00 0.00 0.00 0.00 0.00 0.00 0.00 0.00 0.00 0.00 0.00 0.00 0.00 0.00 0.00 0.00 0.00 0.00 0.00 0.00 0.00 0.00 0.00 0.00 0.00 0.00 0.00 0.00 0.00 0.01 0.01 0.01 0.01 0.01 0.02 0.05 0.04 0.01 0.00 0.00 0.01 0.01
0.00 0.00 0.00 0.00 0.00 0.00 0.00 0.00 0.00 0.00 0.00 0.00 0.00 0.00 0.00 0.00 0.00 0.00 0.00 0.00 0.00 0.00 0.00 0.00 0.00 0.00 0.00 0.00 0.00 0.00 0.01 0.02 0.02 0.02 0.03 0.04 0.03 0.01 0.00 0.00 0.00 0.00 0.00
0.00 0.00 0.00 0.00 0.00 0.00 0.00 0.00 0.00 0.00 0.00 0.00 0.00 0.00 0.00 0.00 0.00 0.00 0.00 0.00 0.00 0.00 0.00 0.00 0.00 0.00 0.00 0.00 0.00 0.00 0.00 0.01 0.02 0.02 0.03 0.01 0.00 0.00 0.00 0.00 0.00 0.00 0.00
0.00 0.00 0.00 0.00 0.00 0.00 0.00 0.00 0.00 0.00 0.00 0.00 0.00 0.00 0.00 0.00 0.00 0.00 0.00 0.00 0.00 0.00 0.00 0.00 0.00 0.00 0.00 0.00 0.01 0.01 0.01 0.01 0.02 0.01 0.00 0.00 0.00 0.00 0.00 0.00 0.00 0.00 0.01
0.00 0.00 0.00 0.00 0.00 0.00 0.00 0.00 0.00 0.00 0.00 0.00 0.00 0.00 0.00 0.00 0.00 0.00 0.00 0.00 0.00 0.00 0.00 0.00 0.00 0.00 0.00 0.00 0.01 0.01 0.02 0.02 0.01 0.01 0.00 0.00 0.00 0.00 0.00 0.00 0.00 0.00 0.01
MSLP
1008.34 1008.46 1008.55 1008.59 1008.62 1008.68 1008.79 1009.01 1009.37 1009.87 1010.48 1011.18 1011.90 1012.60 1013.24 1013.77 1014.19 1014.51 1014.75 1014.93 1015.09 1015.25 1015.42 1015.60 1015.76 1015.91 1016.00 1016.03 1015.99 1015.87 1015.68 1015.42 1015.13 1014.80 1014.46 1014.11 1013.77 1013.44 1013.12 1012.81 1012.51 1012.23 1011.96
1008.26 1008.49 1008.66 1008.77 1008.83 1008.90 1009.03 1009.26 1009.63 1010.14 1010.79 1011.52 1012.27 1013.00 1013.65 1014.20 1014.62 1014.93 1015.17 1015.35 1015.52 1015.70 1015.88 1016.06 1016.23 1016.36 1016.44 1016.45 1016.38 1016.23 1016.03 1015.79 1015.51 1015.22 1014.91 1014.59 1014.26 1013.91 1013.55 1013.17 1012.80 1012.43 1012.08
1008.05 1008.39 1008.66 1008.84 1008.96 1009.06 1009.20 1009.45 1009.84 1010.38 1011.05 1011.81 1012.60 1013.35 1014.01 1014.56 1014.98 1015.29 1015.53 1015.72 1015.89 1016.08 1016.27 1016.45 1016.62 1016.73 1016.79 1016.77 1016.67 1016.52 1016.32 1016.10 1015.86 1015.62 1015.35 1015.07 1014.74 1014.38 1013.96 1013.51 1013.04 1012.57 1012.12
1007.71 1008.18 1008.56 1008.83 1009.02 1009.16 1009.34 1009.61 1010.02 1010.58 1011.27 1012.05 1012.85 1013.61 1014.29 1014.84 1015.26 1015.58 1015.81 1016.01 1016.20 1016.39 1016.58 1016.76 1016.91 1017.01 1017.04 1016.99 1016.88 1016.72 1016.54 1016.35 1016.16 1015.96 1015.75 1015.50 1015.19 1014.80 1014.33 1013.80 1013.23 1012.65 1012.10
1007.30 1007.91 1008.42 1008.79 1009.05 1009.26 1009.47 1009.77 1010.19 1010.77 1011.47 1012.25 1013.06 1013.82 1014.50 1015.05 1015.48 1015.80 1016.05 1016.26 1016.45 1016.64 1016.83 1017.01 1017.14 1017.20 1017.20 1017.13 1017.01 1016.85 1016.68 1016.52 1016.38 1016.23 1016.07 1015.85 1015.55 1015.14 1014.63 1014.02 1013.36 1012.68 1012.04
1006.88 1007.64 1008.29 1008.78 1009.13 1009.41 1009.66 1009.98 1010.42 1010.99 1011.68 1012.45 1013.24 1014.00 1014.67 1015.22 1015.65 1015.99 1016.24 1016.46 1016.66 1016.86 1017.04 1017.19 1017.30 1017.34 1017.30 1017.20 1017.06 1016.90 1016.75 1016.61 1016.51 1016.40 1016.28 1016.08 1015.79 1015.37 1014.82 1014.16 1013.43 1012.67 1011.95
1006.51 1007.43 1008.22 1008.84 1009.29 1009.64 1009.95 1010.29 1010.72 1011.28 1011.94 1012.68 1013.45 1014.18 1014.83 1015.38 1015.82 1016.16 1016.43 1016.66 1016.86 1017.05 1017.22 1017.35 1017.42 1017.42 1017.35 1017.22 1017.06 1016.89 1016.74 1016.62 1016.53 1016.46 1016.35 1016.18 1015.89 1015.47 1014.89 1014.19 1013.41 1012.60 1011.82
1006.21 1007.29 1008.22 1008.97 1009.53 1009.96 1010.32 1010.69 1011.12 1011.65 1012.28 1012.98 1013.70 1014.40 1015.02 1015.56 1015.99 1016.33 1016.61 1016.85 1017.06 1017.24 1017.39 1017.48 1017.52 1017.48 1017.37 1017.20 1017.01 1016.82 1016.65 1016.54 1016.46 1016.39 1016.29 1016.12 1015.84 1015.41 1014.83 1014.11 1013.30 1012.46 1011.65
1005.99 1007.20 1008.27 1009.14 1009.81 1010.33 1010.76 1011.16 1011.60 1012.11 1012.69 1013.34 1014.01 1014.66 1015.25 1015.76 1016.18 1016.53 1016.81 1017.04 1017.24 1017.41 1017.53 1017.59 1017.59 1017.50 1017.35 1017.14 1016.91 1016.69 1016.51 1016.37 1016.28 1016.20 1016.10 1015.92 1015.64 1015.21 1014.62 1013.91 1013.10 1012.25 1011.41
1005.82 1007.13 1008.30 1009.29 1010.07 1010.69 1011.19 1011.64 1012.10 1012.60 1013.15 1013.76 1014.37 1014.97 1015.52 1016.00 1016.40 1016.73 1017.01 1017.23 1017.42 1017.56 1017.65 1017.67 1017.62 1017.49 1017.29 1017.04 1016.78 1016.52 1016.31 1016.14 1016.02 1015.92 1015.79 1015.60 1015.30 1014.87 1014.30 1013.59 1012.79 1011.95 1011.11
1005.66 1007.02 1008.27 1009.35 1010.25 1010.96 1011.56 1012.07 1012.57 1013.09 1013.63 1014.20 1014.77 1015.32 1015.82 1016.27 1016.64 1016.95 1017.20 1017.40 1017.56 1017.67 1017.72 1017.70 1017.61 1017.43 1017.19 1016.91 1016.60 1016.31 1016.06 1015.86 1015.70 1015.55 1015.40 1015.18 1014.87 1014.44 1013.86 1013.17 1012.39 1011.56 1010.73
1005.49 1006.86 1008.15 1009.31 1010.29 1011.12 1011.81 1012.42 1012.98 1013.53 1014.08 1014.63 1015.17 1015.68 1016.14 1016.54 1016.88 1017.16 1017.38 1017.55 1017.68 1017.75 1017.76 1017.70 1017.55 1017.34 1017.06 1016.74 1016.40 1016.08 1015.78 1015.54 1015.33 1015.15 1014.95 1014.70 1014.37 1013.92 1013.36 1012.68 1011.92 1011.10 1010.28
1005.32 1006.66 1007.96 1009.16 1010.22 1011.14 1011.94 1012.65 1013.30 1013.90 1014.48 1015.03 1015.56 1016.03 1016.46 1016.82 1017.12 1017.36 1017.55 1017.68 1017.77 1017.80 1017.77 1017.66 1017.48 1017.22 1016.91 1016.55 1016.18 1015.83 1015.50 1015.21 1014.96 1014.72 1014.47 1014.19 1013.83 1013.37 1012.80 1012.14 1011.39 1010.59 1009.78
1005.19 1006.47 1007.74 1008.96 1010.08 1011.09 1011.99 1012.80 1013.53 1014.20 1014.82 1015.39 1015.91 1016.36 1016.75 1017.08 1017.34 1017.55 1017.69 1017.79 1017.84 1017.83 1017.76 1017.61 1017.39 1017.10 1016.76 1016.37 1015.97 1015.58 1015.21 1014.88 1014.58 1014.29 1013.99 1013.66 1013.26 1012.79 1012.22 1011.56 1010.83 1010.05 1009.24
1005.19 1006.37 1007.60 1008.80 1009.95 1011.02 1012.01 1012.90 1013.72 1014.45 1015.11 1015.70 1016.21 1016.65 1017.02 1017.31 1017.54 1017.71 1017.83 1017.90 1017.91 1017.87 1017.76 1017.58 1017.32 1017.00 1016.63 1016.21 1015.78 1015.35 1014.94 1014.56 1014.20 1013.86 1013.51 1013.13 1012.69 1012.19 1011.61 1010.95 1010.23 1009.47 1008.68
1005.37 1006.45 1007.61 1008.78 1009.93 1011.03 1012.07 1013.02 1013.89 1014.67 1015.36 1015.96 1016.48 1016.90 1017.25 1017.51 1017.72 1017.87 1017.96 1018.00 1017.99 1017.92 1017.78 1017.57 1017.28 1016.93 1016.52 1016.07 1015.61 1015.14 1014.68 1014.25 1013.83 1013.43 1013.02 1012.59 1012.12 1011.59 1010.99 1010.33 1009.62 1008.87 1008.10
1005.77 1006.77 1007.84 1008.96 1010.08 1011.18 1012.23 1013.21 1014.10 1014.90 1015.60 1016.19 1016.69 1017.10 1017.43 1017.68 1017.87 1018.00 1018.08 1018.10 1018.07 1017.98 1017.82 1017.58 1017.27 1016.88 1016.44 1015.95 1015.44 1014.93 1014.42 1013.93 1013.46 1013.00 1012.54 1012.05 1011.53 1010.97 1010.36 1009.70 1009.00 1008.26 1007.52
1006.42 1007.34 1008.33 1009.38 1010.45 1011.51 1012.53 1013.49 1014.37 1015.15 1015.83 1016.40 1016.88 1017.26 1017.57 1017.81 1017.98 1018.11 1018.18 1018.20 1018.16 1018.05 1017.87 1017.61 1017.26 1016.84 1016.36 1015.84 1015.28 1014.71 1014.15 1013.61 1013.08 1012.56 1012.04 1011.51 1010.95 1010.36 1009.73 1009.06 1008.36 1007.65 1006.92
1007.28 1008.13 1009.05 1010.02 1011.01 1012.01 1012.97 1013.87 1014.70 1015.43 1016.07 1016.60 1017.04 1017.40 1017.68 1017.90 1018.07 1018.19 1018.26 1018.28 1018.23 1018.11 1017.91 1017.62 1017.24 1016.78 1016.26 1015.69 1015.08 1014.47 1013.86 1013.26 1012.67 1012.10 1011.54 1010.96 1010.37 1009.76 1009.11 1008.44 1007.75 1007.04 1006.33
1008.27 1009.07 1009.92 1010.81 1011.73 1012.64 1013.52 1014.34 1015.09 1015.76 1016.33 1016.81 1017.20 1017.52 1017.78 1017.98 1018.14 1018.26 1018.32 1018.33 1018.27 1018.13 1017.91 1017.58 1017.17 1016.67 1016.10 1015.48 1014.84 1014.18 1013.52 1012.88 1012.26 1011.65 1011.04 1010.44 1009.83 1009.20 1008.54 1007.87 1007.18 1006.48 1005.77
1009.30 1010.07 1010.86 1011.69 1012.52 1013.34 1014.13 1014.86 1015.53 1016.11 1016.61 1017.03 1017.37 1017.66 1017.88 1018.07 1018.21 1018.31 1018.36 1018.35 1018.27 1018.10 1017.84 1017.47 1017.02 1016.48 1015.87 1015.21 1014.53 1013.84 1013.15 1012.48 1011.83 1011.20 1010.58 1009.97 1009.35 1008.71 1008.05 1007.38 1006.69 1005.99 1005.28
1010.29 1011.04 1011.79 1012.55 1013.31 1014.05 1014.75 1015.40 1015.98 1016.49 1016.92 1017.28 1017.57 1017.81 1018.01 1018.17 1018.29 1018.37 1018.39 1018.35 1018.22 1018.01 1017.70 1017.29 1016.79 1016.20 1015.56 1014.87 1014.16 1013.45 1012.76 1012.08 1011.43 1010.80 1010.18 1009.57 1008.95 1008.32 1007.67 1007.00 1006.31 1005.61 1004.89
1011.19 1011.91 1012.64 1013.35 1014.05 1014.72 1015.35 1015.93 1016.44 1016.88 1017.25 1017.55 1017.81 1018.01 1018.18 1018.30 1018.39 1018.43 1018.41 1018.32 1018.14 1017.87 1017.50 1017.04 1016.49 1015.86 1015.19 1014.48 1013.77 1013.06 1012.37 1011.71 1011.07 1010.46 1009.87 1009.27 1008.67 1008.06 1007.42 1006.76 1006.07 1005.36 1004.62
1011.96 1012.67 1013.37 1014.05 1014.71 1015.33 1015.90 1016.42 1016.87 1017.26 1017.58 1017.85 1018.07 1018.24 1018.37 1018.47 1018.51 1018.50 1018.43 1018.28 1018.03 1017.70 1017.27 1016.74 1016.15 1015.49 1014.79 1014.08 1013.37 1012.68 1012.02 1011.39 1010.79 1010.21 1009.65 1009.08 1008.51 1007.92 1007.29 1006.64 1005.96 1005.24 1004.49
1012.62 1013.32 1014.00 1014.65 1015.28 1015.86 1016.39 1016.86 1017.27 1017.62 1017.91 1018.14 1018.33 1018.48 1018.58 1018.64 1018.64 1018.58 1018.44 1018.22 1017.91 1017.51 1017.01 1016.44 1015.80 1015.12 1014.41 1013.71 1013.02 1012.37 1011.74 1011.15 1010.60 1010.06 1009.53 1009.00 1008.45 1007.88 1007.27 1006.63 1005.94 1005.22 1004.45
1013.19 1013.88 1014.54 1015.17 1015.77 1016.31 1016.81 1017.24 1017.62 1017.93 1018.19 1018.41 1018.57 1018.69 1018.77 1018.79 1018.75 1018.64 1018.45 1018.16 1017.78 1017.32 1016.77 1016.15 1015.48 1014.79 1014.09 1013.41 1012.75 1012.14 1011.56 1011.02 1010.50 1010.00 1009.51 1009.00 1008.46 1007.90 1007.30 1006.65 1005.97 1005.24 1004.46
Thickness
5683 5689 5694 5695 5696 5697 5696 5696 5694 5691 5688 5682 5676 5672 5666 5661 5656 5653 5650 5647 5643 5639 5635 5630 5626 5623 5618 5614 5611 5608 5605 5604 5604 5605 5605 5607 5607 5605 5602 5597 5594 5590 5586
5674 5680 5685 5687 5688 5687 5686 5686 5685 5683 5680 5675 5671 5666 5659 5651 5646 5642 5640 5637 5633 5629 5624 5619 5614 5609 5605 5601 5598 5595 5593 5591 5591 5589 5590 5589 5592 5592 5588 5583 5578 5573 5568
5671 5673 5676 5678 5679 5678 5678 5677 5676 5674 5671 5667 5663 5657 5650 5642 5635 5631 5628 5625 5623 5618 5613 5607 5602 5597 5593 5589 5586 5584 5583 5579 5577 5575 5571 5566 5564 5573 5578 5573 5565 5558 5553
5667 5668 5670 5671 5672 5671 5670 5670 5668 5665 5662 5659 5655 5650 5642 5633 5627 5623 5618 5615 5611 5606 5601 5596 5591 5586 5582 5578 5575 5573 5571 5569 5563 5559 5553 5546 5540 5538 5549 5557 5551 5544 5538
5664 5665 5666 5667 5665 5663 5662 5662 5660 5656 5653 5650 5646 5639 5631 5625 5618 5613 5608 5603 5599 5595 5591 5586 5581 5576 5571 5568 5564 5562 5559 5555 5550 5545 5540 5534 5526 5518 5512 5524 5529 5527 5523
5659 5657 5656 5658 5656 5653 5653 5652 5650 5645 5643 5641 5636 5630 5623 5616 5609 5603 5597 5592 5587 5583 5579 5575 5571 5566 5562 5558 5555 5551 5547 5541 5535 5529 5522 5516 5510 5506 5501 5503 5507 5505 5503
5655 5652 5651 5651 5649 5645 5643 5642 5640 5635 5633 5631 5626 5620 5614 5608 5602 5595 5589 5583 5577 5572 5568 5564 5560 5556 5552 5548 5544 5539 5534 5528 5521 5514 5507 5500 5494 5489 5484 5483 5488 5490 5488
5651 5649 5649 5648 5644 5638 5634 5632 5630 5626 5624 5621 5616 5611 5605 5599 5592 5586 5580 5574 5568 5563 5559 5554 5550 5546 5542 5538 5533 5528 5521 5515 5507 5501 5494 5487 5481 5475 5467 5461 5459 5467 5474
5648 5645 5643 5641 5637 5631 5626 5623 5622 5617 5614 5611 5606 5600 5595 5589 5582 5575 5569 5564 5559 5555 5550 5545 5540 5536 5531 5526 5521 5515 5508 5501 5494 5487 5480 5473 5466 5459 5451 5443 5434 5429 5438
5642 5639 5638 5635 5629 5623 5617 5614 5612 5609 5604 5600 5597 5591 5584 5578 5572 5565 5559 5554 5549 5545 5539 5534 5529 5524 5519 5514 5508 5501 5494 5487 5480 5473 5466 5458 5451 5443 5434 5426 5417 5404 5397
5638 5635 5631 5627 5620 5614 5609 5605 5602 5597 5593 5589 5585 5580 5573 5566 5560 5554 5549 5544 5539 5534 5529 5523 5518 5513 5508 5502 5495 5487 5480 5473 5466 5458 5451 5442 5433 5425 5416 5406 5397 5385 5370
5634 5629 5625 5618 5612 5607 5601 5597 5592 5587 5582 5578 5574 5568 5561 5555 5549 5544 5539 5534 5528 5523 5518 5512 5507 5502 5497 5489 5481 5474 5467 5459 5452 5444 5434 5424 5416 5405 5394 5383 5372 5360 5345
5626 5622 5617 5613 5607 5600 5593 5588 5583 5578 5572 5568 5562 5555 5550 5544 5539 5534 5529 5524 5518 5512 5507 5501 5495 5490 5483 5475 5468 5460 5454 5446 5438 5428 5416 5406 5395 5385 5372 5359 5346 5334 5321
5623 5617 5612 5606 5600 5592 5586 5580 5573 5569 5564 5558 5551 5545 5540 5534 5529 5524 5519 5513 5507 5501 5495 5489 5482 5475 5468 5461 5455 5448 5441 5433 5422 5411 5398 5385 5373 5360 5347 5335 5320 5304 5293
5619 5615 5608 5600 5592 5585 5578 5572 5566 5560 5555 5548 5541 5535 5530 5524 5519 5514 5508 5502 5496 5490 5483 5476 5468 5460 5453 5448 5442 5437 5429 5418 5407 5394 5379 5366 5352 5338 5322 5306 5290 5278 5271
5618 5612 5604 5594 5586 5579 5571 5564 5557 5551 5545 5539 5532 5526 5520 5514 5508 5502 5496 5490 5484 5477 5469 5461 5453 5445 5439 5434 5429 5422 5414 5402 5388 5375 5361 5346 5331 5314 5298 5281 5268 5260 5253
5617 5609 5600 5590 5580 5572 5565 5556 5548 5542 5536 5529 5523 5517 5510 5503 5497 5491 5484 5478 5470 5462 5454 5445 5437 5430 5423 5420 5414 5406 5396 5382 5367 5353 5339 5325 5308 5290 5273 5264 5257 5248 5239
5611 5601 5590 5579 5570 5561 5554 5546 5539 5533 5526 5519 5513 5506 5499 5492 5485 5478 5472 5464 5456 5447 5438 5430 5423 5416 5410 5406 5399 5390 5376 5361 5346 5330 5314 5299 5285 5271 5260 5253 5244 5234 5224
5597 5588 5579 5570 5560 5552 5545 5537 5529 5522 5516 5509 5502 5495 5488 5481 5474 5466 5459 5451 5442 5433 5425 5417 5410 5403 5397 5390 5382 5373 5359 5344 5328 5311 5293 5277 5266 5258 5250 5239 5230 5222 5217
5577 5571 5563 5557 5548 5541 5535 5527 5519 5512 5505 5498 5491 5485 5478 5470 5462 5454 5446 5437 5428 5420 5413 5406 5397 5390 5381 5373 5364 5351 5339 5327 5314 5297 5279 5264 5253 5246 5238 5229 5221 5216 5217
5562 5558 5552 5545 5536 5530 5525 5516 5508 5501 5495 5488 5481 5474 5466 5458 5450 5441 5431 5423 5416 5409 5403 5395 5386 5376 5366 5356 5343 5329 5315 5301 5291 5280 5268 5255 5246 5238 5231 5225 5218 5217 5221
5548 5544 5538 5528 5522 5519 5513 5504 5495 5489 5483 5476 5469 5461 5453 5445 5437 5427 5419 5412 5405 5398 5391 5384 5374 5362 5349 5337 5325 5312 5296 5282 5270 5262 5253 5244 5237 5230 5226 5222 5221 5222 5222
5534 5529 5524 5515 5508 5504 5500 5491 5483 5477 5471 5463 5455 5447 5439 5430 5422 5414 5408 5402 5395 5387 5381 5372 5362 5351 5336 5320 5308 5295 5282 5270 5259 5251 5243 5235 5229 5225 5222 5222 5224 5223 5220
5522 5516 5511 5503 5495 5490 5485 5479 5472 5466 5458 5449 5441 5433 5424 5417 5410 5403 5397 5390 5382 5375 5368 5359 5349 5336 5321 5306 5295 5282 5270 5262 5252 5244 5236 5230 5225 5222 5222 5223 5223 5221 5221
5511 5506 5499 5491 5483 5478 5473 5467 5460 5453 5444 5436 5429 5420 5413 5406 5399 5392 5384 5378 5369 5361 5353 5342 5329 5318 5307 5293 5280 5268 5261 5253 5245 5240 5232 5228 5225 5223 5223 5223 5223 5224 5224
5502 5495 5487 5479 5472 5467 5461 5454 5448 5441 5433 5425 5417 5409 5402 5395 5388 5380 5372 5365 5356 5346 5334 5322 5309 5297 5285 5277 5267 5259 5250 5242 5238 5232 5227 5224 5222 5222 5223 5223 5224 5225 5225